sat.trackr.live / text

‹ back to catalog

STARLINK-4706

NORAD 53779 · 2022-111G

PAYLOAD ACTIVE UNKNOWN

§ Identity

Operator
Country
US
Launch date
2022-09-11
Launch site
AFETR
Launch vehicle
Mass (kg)
RCS (m²)

Purposes: comms

External: N2YO · Heavens-Above · Gunter

§ Orbital elements

Epoch: 2026-05-25T02:59:51.048096Z

Period
95.44 min
Inclination
53.2134°
Eccentricity
0.0001102
Mean motion
15.08860100 rev/d
Perigee alt
538.9 km
Apogee alt
540.4 km
Semi-major
6,917.8 km
B*
1.9478e-4
RAAN
291.1062°
Arg perigee
88.5611°
Mean anomaly
271.5508°
Rev number
20,523

§ Raw data

STARLINK-47061 53779U 22111G   26145.12489639  .00002815  00000+0  19478-3 0  99952 53779  53.2134 291.1062 0001102  88.5611 271.5508 15.08860100205234

JSON: /api/v1/satellites/53779 · /tle

For live sub-satellite position, see the globe view (requires WebGL).

§ Visibility from observer

Set your observer location to see the next 7 days of passes ≥ 10°. The values pass through the URL so the page stays shareable.

No JS? Fill the form by hand. The geolocation button needs JavaScript.